Location: Ahausen
(50.4985°N, 8.2722°E)
Time: 10:16:30
(UTC+00:00)

Cosmos 1707 - Pass Details

Date: 18 September 2020
Orbit: 515 x 530 km, 82.5° (Epoch: 25 October)

Event Time Altitude Azimuth Distance (km) Brightness Sun altitude
Rises 19:15:11 0° 344° (NNW) 2,655 6.9 -16.5°
Reaches altitude 10° 19:17:24 10° 338° (NNW) 1,760 6.1 -16.9°
Maximum altitude 19:21:04 43° 266° (W) 742 3.9 -17.4°
Drops below altitude 10° 19:24:41 10° 195° (SSW) 1,741 5.3 -17.9°
Enters shadow 19:25:58 - 190° (S) 2,257 5.8 -18.1°
